Probability
0 0 1 2 3 3 3 3 3 4 5 5 5 5 6 6 5 5 9 12 11 9 6 4 3 3 3 2 2 1 2 3 3 3 3 3 2 1 2 2 2 2 1
0 0 0 1 2 3 3 3 3 4 4 5 5 5 5 5 5 5 7 11 11 8 5 3 3 3 3 1 1 0 1 2 3 3 3 3 2 1 1 1 2 2 2
0 0 0 0 1 2 3 3 3 4 5 6 6 5 5 4 4 4 5 8 9 7 5 3 3 3 2 1 0 0 0 1 1 2 3 3 2 1 0 0 1 2 3
0 0 0 0 0 1 2 3 3 4 6 6 6 5 5 3 3 3 4 5 6 6 5 4 3 3 2 1 0 0 0 0 0 1 2 3 3 2 0 0 0 1 2
0 0 0 0 0 0 1 3 4 5 6 5 4 4 3 2 2 3 4 4 5 7 7 6 4 4 3 2 1 0 0 0 0 0 1 2 2 1 0 0 0 0 1
0 0 0 0 0 0 1 2 3 4 5 4 3 3 3 4 4 4 4 4 6 8 8 7 5 5 5 3 1 0 0 0 0 0 0 1 1 0 1 1 1 1 1
0 0 0 0 0 0 0 1 2 3 4 3 3 3 4 6 6 5 4 4 6 8 8 7 5 5 5 3 1 0 0 0 0 0 0 0 0 0 1 2 2 2 2
0 0 0 0 0 0 0 0 1 2 3 3 3 3 4 6 6 6 5 4 4 5 6 6 4 3 3 1 0 0 0 0 0 0 0 0 0 0 1 2 3 3 3
0 0 0 0 0 0 0 0 0 1 2 3 3 3 3 4 5 6 6 5 3 3 4 4 3 2 1 0 0 0 0 0 0 0 0 0 0 0 0 1 2 2 2
0 0 0 0 0 0 0 0 0 0 1 2 3 3 3 3 4 5 6 4 3 3 3 3 2 1 0 0 0 0 0 0 0 0 0 0 0 0 0 0 1 1 1
0 0 0 0 0 0 0 0 0 0 0 1 1 2 3 3 3 3 4 3 3 4 4 3 3 1 0 0 0 0 0 0 0 0 0 0 0 0 0 0 0 0 0
0 0 0 0 0 0 0 0 0 0 0 0 0 1 1 2 1 1 2 2 4 5 5 3 2 1 0 0 0 0 0 0 0 0 0 0 0 0 0 0 0 0 0
0 0 0 0 0 0 0 0 0 0 0 0 0 0 0 0 0 0 0 1 3 4 4 3 1 0 0 0 0 0 0 0 0 0 0 0 0 0 0 0 0 0 0
0 0 0 0 0 0 0 0 0 0 0 0 0 0 0 0 0 0 0 1 2 3 3 3 1 0 0 0 0 0 0 0 0 0 0 0 0 0 0 0 0 0 0
0 0 0 0 0 0 0 0 0 0 0 0 0 0 0 0 0 0 0 0 1 1 3 3 2 0 0 0 0 0 0 0 0 0 0 0 0 0 0 0 0 0 0
0 0 0 0 0 0 0 0 0 0 0 0 0 0 0 0 0 0 0 0 0 1 2 3 1 0 0 0 0 0 0 0 0 0 0 0 0 0 0 0 0 0 0
0 0 0 0 0 0 0 0 0 0 0 0 0 0 0 0 0 0 0 0 0 1 3 3 1 0 0 0 0 0 0 0 0 0 0 0 0 0 0 0 0 0 0
0 0 0 0 0 0 0 0 0 0 0 0 0 0 0 0 0 0 0 0 1 2 3 3 2 1 0 0 0 0 0 0 0 0 0 0 0 0 0 0 0 0 0
0 0 0 0 0 0 0 0 0 0 0 0 0 0 0 0 0 0 0 0 1 2 3 3 2 1 0 0 0 0 0 0 0 0 0 0 0 0 0 0 0 0 0
0 0 0 0 0 0 0 0 0 0 0 0 0 0 0 0 0 0 0 1 1 2 2 1 1 0 0 0 0 0 0 0 0 0 0 0 0 0 0 0 0 0 0
0 0 0 0 0 0 0 0 0 0 0 0 0 0 0 0 0 0 0 1 2 2 1 0 0 0 0 0 0 0 0 0 0 0 0 0 0 0 0 0 0 0 0
0 0 0 0 0 0 0 0 0 0 0 0 0 0 0 0 0 0 0 1 1 1 0 0 0 0 0 0 0 0 0 0 0 0 0 0 0 0 0 0 0 0 0
0 0 0 0 0 0 0 0 0 0 0 0 0 0 0 0 0 0 0 0 0 0 0 0 0 0 0 0 0 0 0 0 0 0 0 0 0 0 0 0 0 0 0
0 0 0 0 0 0 0 0 0 0 0 0 0 0 0 0 0 0 0 0 0 0 0 0 0 0 0 0 0 0 0 0 0 0 0 0 0 0 0 0 0 0 0
0 0 0 0 0 0 0 0 0 0 0 0 0 0 0 0 0 0 0 0 0 0 0 0 0 0 0 0 0 0 0 0 0 0 0 0 0 0 0 0 0 0 0
0 0 0 0 0 0 0 0 0 0 0 0 0 0 0 0 0 0 0 0 0 0 0 0 0 0 0 0 0 0 0 0 0 0 0 0 0 0 0 0 0 0 0
Wind_Speed
4 3 3 2 2 2 2 2 2 2 2 2 2 2 2 2 2 2 2 3 3 3 2 1 2 2 3 3 3 3 3 2 2 1 1 0 1 0 1 1 0 0 1
4 3 3 2 3 3 3 3 3 3 3 2 2 2 2 2 2 2 2 3 3 3 3 3 2 2 2 3 3 3 2 2 2 1 1 1 1 1 0 0 0 1 0
4 4 3 3 3 3 3 3 3 3 3 3 2 2 2 2 2 2 2 3 4 4 3 3 3 3 2 3 4 4 3 2 2 1 1 2 2 0 1 1 1 1 1
4 3 3 3 4 4 3 3 3 4 3 3 3 3 3 3 3 2 2 3 3 4 4 4 4 4 3 3 4 3 3 4 3 2 1 1 1 2 1 1 1 2 2
3 4 4 4 4 3 3 3 3 3 3 3 4 4 4 3 2 3 3 3 3 3 3 4 4 4 3 3 4 4 4 3 4 3 2 1 1 2 2 2 2 2 2
3 3 3 3 3 3 3 3 3 3 3 4 4 5 5 4 3 4 4 3 2 3 4 4 4 3 3 3 4 5 5 4 4 3 3 2 3 3 2 2 3 2 2
3 3 3 3 3 4 3 3 3 4 4 4 5 5 6 6 6 5 5 4 3 3 4 4 4 3 3 3 3 4 5 5 4 4 3 3 2 2 2 2 2 2 2
3 3 3 3 3 4 3 3 4 4 4 4 5 5 6 5 4 5 4 4 4 4 4 4 4 4 4 3 3 4 4 4 4 4 4 3 2 2 2 2 2 2 3
4 3 3 3 3 4 4 4 4 4 4 5 5 5 5 5 5 5 5 4 4 3 4 4 4 4 4 4 4 3 4 4 4 4 4 3 2 2 2 3 3 3 3
4 4 3 4 3 3 4 4 4 4 4 4 4 3 4 5 5 5 5 5 4 4 4 5 4 4 4 4 4 3 4 4 4 3 4 3 2 2 2 3 3 3 4
4 4 4 4 3 3 3 4 4 4 4 4 4 4 4 4 4 4 5 5 4 5 5 5 5 5 5 4 4 4 4 5 4 4 4 4 3 3 2 2 3 3 3
3 3 4 4 3 3 4 4 4 4 5 4 4 4 4 3 4 4 4 5 5 5 5 4 5 4 4 4 5 4 4 5 5 4 4 4 3 3 3 3 3 3 3
4 3 3 3 3 3 3 4 4 5 5 4 4 4 4 3 4 4 4 4 4 4 4 4 4 4 4 4 4 4 5 5 4 4 4 4 4 4 3 3 3 3 3
4 4 4 4 4 4 3 4 4 5 5 4 4 4 4 3 3 3 3 3 4 4 4 4 4 4 4 4 3 4 4 4 4 4 4 4 5 5 4 4 4 3 3
4 4 4 4 4 4 4 4 4 4 5 4 4 4 4 3 2 2 2 3 3 3 4 4 4 4 3 3 4 3 3 3 3 3 3 4 4 5 4 3 4 3 3
5 5 5 5 5 4 4 4 4 4 4 4 4 4 3 2 2 2 1 2 2 2 3 4 4 4 3 4 5 4 3 3 3 3 3 3 4 4 5 5 5 5 4
5 5 6 5 5 5 4 4 4 4 3 3 4 4 4 3 2 2 1 2 2 2 3 3 4 4 4 5 5 5 4 3 3 3 3 2 2 3 3 3 4 4 4
5 5 5 5 5 5 4 4 3 3 3 3 3 3 3 3 2 2 2 2 2 2 2 3 4 3 3 5 5 5 4 3 3 4 4 3 3 3 3 3 2 3 3
5 5 5 5 5 4 3 3 3 3 3 3 3 3 4 3 3 2 3 2 2 2 2 3 4 4 4 5 5 4 3 2 3 3 3 4 3 3 3 3 3 3 2
4 4 4 4 4 4 3 3 3 3 3 3 3 3 3 3 3 3 3 3 2 2 2 3 3 4 4 5 5 4 3 3 3 2 3 4 4 3 3 3 3 3 3
4 4 3 3 4 3 3 3 3 4 4 3 3 3 3 3 3 3 3 2 2 2 3 3 3 3 3 4 5 5 3 3 3 3 3 2 3 4 3 4 3 3 3
4 4 3 3 3 3 3 4 4 4 3 3 3 3 3 3 2 3 2 2 2 2 2 2 2 2 2 3 4 5 4 3 3 3 2 2 3 3 3 3 3 3 3
4 3 3 4 3 3 3 4 4 3 3 3 3 3 3 2 2 2 2 2 2 2 2 2 2 2 2 2 4 4 4 4 3 2 3 3 4 3 3 3 3 3 2
4 3 3 4 4 3 4 4 4 3 3 3 3 3 2 2 2 2 2 2 2 2 2 2 2 2 2 2 2 2 2 3 3 2 3 4 4 3 2 2 2 2 2
4 4 4 4 4 4 4 3 3 3 3 3 3 2 2 2 2 2 2 3 3 3 3 3 2 2 2 2 3 3 2 2 2 2 2 2 2 2 2 1 1 1 2
4 4 4 4 4 4 4 4 3 3 3 3 3 2 2 2 2 2 2 2 3 4 5 5 4 3 3 3 3 4 3 3 3 3 2 2 2 2 2 2 2 2 2
Wind_Direction
293 300 301 286 278 275 272 263 248 231 211 222 229 222 222 224 225 233 220 209 205 196 182 178 185 192 189 175 168 152 151 143 135 126 107 39 68 60 76 72 351 326 345
291 301 305 311 291 276 265 263 257 239 225 227 239 241 234 240 239 233 232 216 206 203 199 192 188 197 202 177 168 146 153 161 176 179 173 190 199 156 286 229 285 299 299
277 286 288 289 291 288 277 265 264 250 229 220 219 215 209 218 220 227 231 224 211 205 204 204 195 191 194 189 183 174 166 168 192 197 199 209 218 236 194 253 249 271 276
284 287 285 286 286 286 287 275 262 254 235 213 212 212 220 227 232 228 225 229 218 211 207 205 205 198 197 198 191 190 187 177 188 199 239 267 249 213 205 217 241 269 270
299 290 287 285 289 294 295 285 271 263 246 228 220 221 231 238 239 226 225 228 215 215 217 210 209 201 201 203 197 191 190 191 196 203 210 217 230 230 224 231 235 253 258
320 310 303 303 308 316 318 303 285 276 264 247 235 226 229 230 231 232 225 229 222 214 217 219 212 204 205 205 202 190 191 196 201 208 213 215 212 214 229 236 237 252 258
333 328 317 310 312 316 319 306 294 284 278 264 248 238 235 230 229 234 230 227 225 221 215 214 214 206 206 207 202 191 195 202 203 207 215 227 240 216 223 225 242 265 266
346 335 318 308 313 317 314 304 296 287 284 273 262 249 241 235 231 229 230 233 232 224 216 211 211 203 198 202 206 198 200 206 208 210 212 216 223 228 217 217 224 251 261
347 339 333 328 324 322 315 304 296 292 288 278 266 254 243 237 234 229 226 233 235 224 209 202 196 192 191 199 202 207 203 205 208 210 212 214 218 231 231 221 224 232 249
343 343 341 333 327 324 317 310 307 300 293 287 278 264 253 245 238 231 223 227 230 222 210 195 191 191 191 193 195 200 202 203 206 209 213 215 218 221 235 230 233 243 245
336 338 338 334 334 337 333 327 324 319 309 304 296 278 262 252 244 233 224 222 219 211 210 198 190 193 193 192 194 200 200 206 206 206 211 216 218 217 220 234 238 246 244
324 330 332 335 338 339 336 333 329 328 324 316 305 292 275 258 248 240 229 223 217 209 204 196 191 196 196 197 199 197 204 210 210 208 211 216 217 219 223 226 238 244 247
316 326 331 329 329 332 334 334 330 328 328 321 312 304 285 262 250 241 231 222 209 202 199 195 193 197 198 201 206 203 204 210 213 213 215 218 217 223 223 229 235 248 250
304 316 321 320 322 324 327 325 326 325 325 324 316 312 299 277 259 245 231 214 204 199 201 195 194 197 192 196 203 202 204 209 211 218 223 224 222 223 226 230 234 242 245
289 298 306 308 309 314 320 320 320 323 321 320 321 317 312 294 273 252 230 209 204 206 203 192 190 192 193 196 197 201 207 210 216 224 228 231 231 237 240 238 233 233 240
282 291 295 297 296 299 306 308 311 318 316 317 322 322 320 305 286 272 247 209 209 212 206 197 194 197 199 192 198 203 207 214 219 225 232 234 227 226 234 240 242 240 233
280 283 287 287 288 288 289 292 299 306 308 312 321 327 324 319 299 290 263 230 219 214 211 205 203 206 200 195 194 195 204 213 223 229 231 237 238 234 235 227 232 246 247
281 282 286 289 289 286 284 288 290 295 301 311 322 323 319 317 302 286 269 250 233 222 218 214 209 211 197 192 193 192 203 208 222 230 232 233 232 233 239 240 243 254 258
280 284 284 285 283 279 281 285 289 294 299 306 312 314 310 310 307 277 265 259 245 234 229 226 211 210 201 194 193 198 199 205 221 229 232 232 230 223 229 233 238 251 268
290 291 292 289 281 282 278 274 283 288 291 297 301 303 303 300 297 289 266 253 244 239 233 230 218 215 214 205 200 203 203 205 214 217 220 222 228 225 235 240 239 249 267
297 295 291 284 280 281 273 270 276 283 294 301 302 302 303 298 296 295 281 260 242 233 234 232 223 218 219 209 202 207 212 208 209 216 219 218 215 228 240 254 253 258 271
299 300 293 288 282 269 262 268 277 292 299 299 297 296 297 299 295 290 288 273 252 236 234 233 229 221 218 221 208 210 221 227 217 221 222 216 211 227 242 250 258 267 275
291 291 283 284 280 265 258 267 284 293 290 286 287 292 298 298 290 281 282 277 263 246 236 229 231 224 215 209 210 208 211 220 230 223 215 216 220 232 231 224 235 245 252
278 275 272 270 274 274 269 272 283 287 278 275 281 288 293 296 287 280 277 268 259 250 238 235 234 235 225 215 208 206 201 200 217 215 198 204 213 226 232 228 230 239 243
270 263 260 264 270 274 275 279 278 274 269 268 272 277 279 284 284 282 275 270 268 268 261 251 245 237 235 239 243 231 219 212 211 204 207 210 211 217 222 234 245 247 242
260 259 260 260 267 268 271 275 271 261 259 261 263 267 271 279 284 286 299 313 282 289 282 276 269 268 263 252 240 227 217 209 202 206 205 211 218 218 218 223 232 245 251